Tracking 30260 objects as of 14-Feb-2025
HD Live streaming from Space Station
objects crossing your sky now

CZ-4 DEB

Track CZ-4 DEB now!
10-day predictions


NORAD ID: 37616
Int'l Code: 1990-081DC
Perigee: 855.7 km
Apogee: 1,002.8 km
Inclination: 98.9 °
Period: 103.5 minutes
Semi major axis: 7300 km
RCS: 0.0129 m2 (small)
Launch date: September 3, 1990
Source: People's Republic of China (PRC)
Launch site: Taiyaun Space Center, China (TSC)

Note: This is SATELLITE DEBRIS
Your satellite tracking list
Your tracking list is empty




NASA's NSSDC Master Catalog

Two Line Element Set (TLE):
1 37616U 90081DC  25039.24473053  .00000469  00000-0  38482-3 0  9995
2 37616  98.8596  30.0032 0100760 175.2190 184.9956 13.91851749647936
Source of the keplerian elements: AFSPC